Retour au catalogue

SL-14 R/B

ActifPO
NORAD 22693·ROCKET BODY·🇷🇺 Russia

Lancé Jun 24, 1993 depuis Plesetsk Cosmodrome

Loading…

Prochains Passages (prochaines 24 heures)

TLE

FraisSource: Space-Track

Époque: Sep 14, 2026, 13:00 UTC

1 22693U 93038G   26257.54180757  .00000007  00000-0 -22684-4 0  9998
2 22693  82.5831 293.4946 0046852 123.5837  43.9287 12.54835920522227

Suivez SL-14 R/B en temps réel avec AllMySat

Download on the App Store